TimeHST,TemperatureF,Dew PointF,Humidity,Sea Level PressureIn,VisibilityMPH,Wind Direction,Wind SpeedMPH,Gust SpeedMPH,PrecipitationIn,Events,Conditions,WindDirDegrees,DateUTC
12:17 AM,71.6,66.2,83,30.04,10.0,NE,10.4,-,N/A,,Mostly Cloudy,50,2013-07-04 10:17:00
12:53 AM,72.0,66.9,84,30.02,10.0,NE,8.1,-,N/A,,Mostly Cloudy,50,2013-07-04 10:53:00
1:17 AM,71.6,66.2,83,30.02,10.0,NE,6.9,-,N/A,,Scattered Clouds,50,2013-07-04 11:17:00
1:53 AM,72.0,66.9,84,30.00,10.0,ENE,8.1,-,N/A,,Scattered Clouds,60,2013-07-04 11:53:00
2:43 AM,69.8,66.2,88,30.00,10.0,NNW,3.5,-,N/A,,Mostly Cloudy,340,2013-07-04 12:43:00
2:53 AM,72.0,66.9,84,29.99,10.0,ENE,9.2,-,N/A,,Mostly Cloudy,60,2013-07-04 12:53:00
3:41 AM,69.8,66.2,88,29.99,10.0,North,5.8,-,N/A,,Mostly Cloudy,350,2013-07-04 13:41:00
3:53 AM,70.0,66.9,90,29.99,10.0,North,4.6,-,N/A,,Scattered Clouds,10,2013-07-04 13:53:00
4:24 AM,69.8,68.0,94,29.99,10.0,North,5.8,-,N/A,,Mostly Cloudy,360,2013-07-04 14:24:00
4:51 AM,69.8,66.2,88,29.99,10.0,NE,6.9,-,N/A,,Mostly Cloudy,50,2013-07-04 14:51:00
4:53 AM,69.1,66.9,93,29.99,10.0,NE,8.1,-,N/A,,Mostly Cloudy,50,2013-07-04 14:53:00
5:53 AM,72.0,66.9,84,30.00,10.0,NE,9.2,-,N/A,,Scattered Clouds,50,2013-07-04 15:53:00
6:50 AM,73.4,68.0,83,30.02,10.0,NNE,12.7,-,N/A,,Mostly Cloudy,30,2013-07-04 16:50:00
6:53 AM,73.0,69.1,87,30.01,10.0,NNE,12.7,-,N/A,,Mostly Cloudy,30,2013-07-04 16:53:00
7:41 AM,75.2,66.2,73,30.04,10.0,NE,10.4,-,N/A,,Partly Cloudy,50,2013-07-04 17:41:00
7:53 AM,75.0,68.0,79,30.03,10.0,NE,10.4,-,N/A,,Partly Cloudy,50,2013-07-04 17:53:00
8:53 AM,75.9,66.9,74,30.04,10.0,NE,10.4,-,N/A,,Mostly Cloudy,50,2013-07-04 18:53:00
9:32 AM,75.2,69.8,83,30.05,10.0,NE,11.5,-,N/A,,Mostly Cloudy,50,2013-07-04 19:32:00
9:53 AM,78.1,69.1,74,30.05,10.0,ENE,11.5,-,N/A,,Mostly Cloudy,60,2013-07-04 19:53:00
10:53 AM,77.0,66.9,71,30.05,10.0,ENE,10.4,-,N/A,,Overcast,70,2013-07-04 20:53:00
11:06 AM,77.0,68.0,74,30.06,10.0,ENE,11.5,-,N/A,,Overcast,60,2013-07-04 21:06:00
11:53 AM,79.0,68.0,69,30.04,10.0,NE,10.4,-,N/A,,Partly Cloudy,50,2013-07-04 21:53:00
12:53 PM,80.1,69.1,69,30.03,10.0,NE,11.5,-,N/A,,Partly Cloudy,50,2013-07-04 22:53:00
1:53 PM,80.1,68.0,67,30.02,10.0,NE,10.4,-,N/A,,Partly Cloudy,50,2013-07-04 23:53:00
2:53 PM,78.1,69.1,74,30.01,10.0,NE,10.4,-,N/A,,Mostly Cloudy,50,2013-07-05 00:53:00
3:53 PM,79.0,69.1,72,30.00,10.0,ENE,9.2,-,N/A,,Clear,70,2013-07-05 01:53:00
4:53 PM,78.1,68.0,71,30.00,10.0,NE,10.4,-,N/A,,Clear,50,2013-07-05 02:53:00
5:53 PM,77.0,68.0,74,30.00,10.0,NE,11.5,-,N/A,,Clear,50,2013-07-05 03:53:00
6:53 PM,73.9,66.9,79,30.02,10.0,NE,9.2,-,N/A,,Clear,50,2013-07-05 04:53:00
7:42 PM,73.4,66.2,78,30.04,10.0,NE,8.1,-,N/A,,Mostly Cloudy,50,2013-07-05 05:42:00
7:53 PM,73.0,66.9,81,30.03,10.0,NE,8.1,-,N/A,,Mostly Cloudy,50,2013-07-05 05:53:00
8:45 PM,73.4,66.2,78,30.05,10.0,NE,9.2,-,N/A,,Mostly Cloudy,40,2013-07-05 06:45:00
8:53 PM,73.0,66.0,79,30.04,10.0,NNE,9.2,-,N/A,,Mostly Cloudy,30,2013-07-05 06:53:00
9:17 PM,73.4,66.2,78,30.05,10.0,NE,9.2,-,N/A,,Mostly Cloudy,50,2013-07-05 07:17:00
9:53 PM,73.0,66.9,81,30.06,10.0,NE,9.2,-,N/A,,Overcast,50,2013-07-05 07:53:00
10:11 PM,73.4,66.2,78,30.07,10.0,NE,10.4,-,N/A,,Scattered Clouds,40,2013-07-05 08:11:00
10:53 PM,71.1,66.0,84,30.07,10.0,North,4.6,-,N/A,,Scattered Clouds,350,2013-07-05 08:53:00
11:51 PM,69.8,66.2,88,30.07,10.0,NNW,4.6,-,N/A,,Mostly Cloudy,340,2013-07-05 09:51:00
11:53 PM,70.0,66.9,90,30.06,10.0,NNW,4.6,-,N/A,,Mostly Cloudy,340,2013-07-05 09:53:00